Tracking 31030 objects as of 16-Jul-2025
HD Live streaming from Space Station
objects crossing your sky now

CZ-6A DEB

Track CZ-6A DEB now!
10-day predictions


NORAD ID: 54268
Int'l Code: 2022-151K
Perigee: 833.6 km
Apogee: 1,010.0 km
Inclination: 98.8 °
Period: 103.3 minutes
Semi major axis: 7292 km
RCS: Unknown
Launch date: November 11, 2022
Source: People's Republic of China (PRC)
Launch site: Taiyaun Space Center, China (TSC)

Note: This is SATELLITE DEBRIS
Your satellite tracking list
Your tracking list is empty




NASA's NSSDC Master Catalog

Two Line Element Set (TLE):
1 54268U 22151K   25197.54384105 -.00000029  00000-0  10191-4 0  9998
2 54268  98.8474 172.0142 0120935 282.7132  76.0535 13.93994784135607
Source of the keplerian elements: AFSPC